This is the latest recevied weather packets stored in our database for station/object LX0WX-13. If no packets are shown the sender has not sent any weather packets the latest 10 day(s).
| Time | Temp. | Humidity | Pressure | Rain* | Wind** | Luminosity | Snow |
|---|---|---|---|---|---|---|---|
| 1777628466 | 16.11° C | 19% | 1020.9 hPa | 0 mm | - | - | - |
| 1777628166 | 16.11° C | 19% | 1020.8 hPa | 0 mm | - | - | - |
| 1777627866 | 16.67° C | 19% | 1021 hPa | 0 mm | - | - | - |
| 1777627566 | 16.11° C | 19% | 1021 hPa | 0 mm | - | - | - |
| 1777627266 | 16.11° C | 19% | 1021 hPa | 0 mm | - | - | - |
| 1777626966 | 15.56° C | 19% | 1021.1 hPa | 0 mm | - | - | - |
| 1777626666 | 15° C | 19% | 1021.2 hPa | 0 mm | - | - | - |
| 1777626366 | 15° C | 19% | 1021 hPa | 0 mm | - | - | - |
| 1777626066 | 15° C | 23% | 1020.8 hPa | 0 mm | - | - | - |
| 1777625766 | 15° C | 24% | 1020.9 hPa | 0 mm | - | - | - |
| 1777625466 | 14.44° C | 25% | 1020.9 hPa | 0 mm | - | - | - |
| 1777625166 | 14.44° C | 25% | 1021 hPa | 0 mm | - | - | - |
| 1777624866 | 13.89° C | 26% | 1021 hPa | 0 mm | - | - | - |
| 1777624566 | 13.89° C | 25% | 1021 hPa | 0 mm | - | - | - |
| 1777624266 | 13.33° C | 26% | 1021 hPa | 0 mm | - | - | - |
| 1777623966 | 13.33° C | 26% | 1020.9 hPa | 0 mm | - | - | - |
| 1777623666 | 13.33° C | 27% | 1020.9 hPa | 0 mm | - | - | - |
| 1777623366 | 12.78° C | 27% | 1020.8 hPa | 0 mm | - | - | - |
| 1777623066 | 12.78° C | 26% | 1020.8 hPa | 0 mm | - | - | - |
| 1777622766 | 12.78° C | 27% | 1020.7 hPa | 0 mm | - | - | - |
| 1777622466 | 12.78° C | 26% | 1021 hPa | 0 mm | - | - | - |
| 1777622166 | 12.78° C | 27% | 1020.8 hPa | 0 mm | - | - | - |
| 1777621866 | 12.78° C | 27% | 1021 hPa | 0 mm | - | - | - |
| 1777621566 | 12.78° C | 28% | 1021 hPa | 0 mm | - | - | - |
| 1777621266 | 12.22° C | 28% | 1020.9 hPa | 0 mm | - | - | - |
* Rain latest hour (hover to see other rain measurements)
** Current wind speed in m/s (hover to see current wind gust speed)